Location: Bondula
(6.3703°N, 10.6756°W)
Time: 21:54:20
(UTC+00:00)

KORONAS-FOTON - Pass Details

Date: 22 October 2019
Orbit: 507 x 532 km, 82.4° (Epoch: 15 November)

Event Time Altitude Azimuth Distance (km) Brightness Sun altitude
Rises 05:28:53 0° 188° (S) 2,612 7.4 -15.5°
Reaches altitude 10° 05:31:01 10° 191° (S) 1,723 6.4 -15.0°
Maximum altitude 05:34:46 68° 274° (W) 547 3.6 -14.0°
Drops below altitude 10° 05:38:30 10° 357° (N) 1,713 6.3 -13.1°
Sets 05:40:37 0° 0° (N) 2,596 7.3 -12.6°
